sat.trackr.live / text

‹ back to catalog

COSMOS 2528

NORAD 43657 · 2018-082A

PAYLOAD ACTIVE UNKNOWN

§ Identity

Operator
Country
CIS
Launch date
2018-10-25
Launch site
PLMSC
Launch vehicle
Mass (kg)
RCS (m²)

External: N2YO · Heavens-Above · Gunter

§ Orbital elements

Epoch: 2026-09-19T05:53:24.611136Z

Period
103.10 min
Inclination
67.1482°
Eccentricity
0.0007761
Mean motion
13.96714664 rev/d
Perigee alt
899.5 km
Apogee alt
910.8 km
Semi-major
7,283.3 km
B*
1.3574e-5
RAAN
209.1436°
Arg perigee
259.6494°
Mean anomaly
100.3716°
Rev number
40,308

§ Raw data

COSMOS 25281 43657U 18082A   26262.24542374 -.00000056  00000+0  13574-4 0  99982 43657  67.1482 209.1436 0007761 259.6494 100.3716 13.96714664403080

JSON: /api/v1/satellites/43657 · /tle

For live sub-satellite position, see the globe view (requires WebGL).

§ Visibility from observer

Set your observer location to see the next 7 days of passes ≥ 10°. The values pass through the URL so the page stays shareable.

No JS? Fill the form by hand. The geolocation button needs JavaScript.